Daily Reports
[Select Refresh to Update]
Updated Automatically by Ambient Software's Virtual Weather Station  V14.01


Daily Archive Report

Parameter                   Max   Max Time        Min   Min Time    Average
Wind Direction              355     8:42am          0    12:07pm        270
Wind Speed                 16.0     8:19am        0.0    12:00am        1.5
Wind Gust                  16.0     8:19am        0.0    12:03am        8.2
Humidity                     80    12:00am         31     2:39pm         55
Out Temp                   45.4     2:32pm       32.2     6:29am       38.9
Raw Barometer             30.18     9:29am      30.05    12:00am      30.10
Dew Point                  33.3    12:00am       14.5     3:09pm       23.0


Today's  Data File

3/27/15
Time         Wind Dir   Wind Spd  Wind Gust   Humidity       Temp  Raw Barom  Dew Point Barom Rate Wind Spd H WindGust H Humidity H Temp Out H Humidity L Temp Out L  DailyRain   24HrRain
                            mph        mph          %         F         in         F      in/hr        mph        mph          %         F          %         F         in         in
12:00am           303        0.0       12.0         80       38.9      30.05       33.3      0.006       12.0       12.0         80       38.9         80       38.9       0.00       0.00
12:05am           262        1.0        3.0         80       38.8      30.05       33.2      0.006       12.0       12.0         80       38.9         80       38.8       0.00       0.00
12:10am           265        0.0        7.0         80       38.6      30.05       33.0      0.005       12.0       12.0         80       38.9         80       38.6       0.00       0.00
12:15am           269        1.0        7.0         80       38.5      30.05       32.9      0.010       12.0       12.0         80       38.9         80       38.5       0.00       0.00
12:20am           299        0.0        7.0         80       38.5      30.05       32.9      0.009       12.0       12.0         80       38.9         80       38.5       0.00       0.00
12:25am           278        2.0        7.0         80       38.3      30.05       32.7      0.008       12.0       12.0         80       38.9         80       38.3       0.00       0.00
12:30am           289        7.0        8.0         80       38.3      30.06       32.7      0.011       12.0       12.0         80       38.9         80       38.3       0.00       0.00
12:35am           273        0.0        8.0         79       38.2      30.06       32.3      0.010       12.0       12.0         80       38.9         79       38.2       0.00       0.00
12:40am           273        2.0        8.0         79       38.2      30.06       32.3      0.009       12.0       12.0         80       38.9         79       38.2       0.00       0.00
12:45am           278        3.0        8.0         79       38.2      30.06       32.3      0.006       12.0       12.0         80       38.9         79       38.2       0.00       0.00
12:50am           275        7.0        8.0         79       38.0      30.06       32.1      0.006       12.0       12.0         80       38.9         79       38.0       0.00       0.00
12:55am           268        2.0        8.0         79       38.0      30.06       32.1      0.005       12.0       12.0         80       38.9         79       38.0       0.00       0.00
1:00am            261        2.0        8.0         79       38.0      30.06       32.1      0.009       12.0       12.0         80       38.9         79       38.0       0.00       0.00
1:05am            259        1.0        4.0         79       37.9      30.06       32.0      0.008       12.0       12.0         80       38.9         79       37.9       0.00       0.00
1:10am            268        6.0        9.0         78       37.8      30.06       31.6      0.007       12.0       12.0         80       38.9         78       37.8       0.00       0.00
1:15am            272        0.0        9.0         79       37.8      30.06       31.9      0.006       12.0       12.0         80       38.9         78       37.8       0.00       0.00
1:20am            272        7.0        9.0         79       37.8      30.06       31.9      0.005       12.0       12.0         80       38.9         78       37.8       0.00       0.00
1:25am            271        0.0        9.0         79       37.8      30.06       31.9      0.005       12.0       12.0         80       38.9         78       37.8       0.00       0.00
1:30am            261        3.0        9.0         78       37.8      30.06       31.6      0.005       12.0       12.0         80       38.9         78       37.8       0.00       0.00
1:35am            266        5.0        9.0         79       37.6      30.06       31.7      0.004       12.0       12.0         80       38.9         78       37.6       0.00       0.00
1:40am            259        0.0        9.0         79       37.6      30.06       31.7      0.004       12.0       12.0         80       38.9         78       37.6       0.00       0.00
1:45am            297        3.0        9.0         79       37.6      30.06       31.7      0.003       12.0       12.0         80       38.9         78       37.6       0.00       0.00
1:50am            286        0.0        9.0         79       37.6      30.06       31.7      0.002       12.0       12.0         80       38.9         78       37.6       0.00       0.00
1:55am            286        2.0        9.0         79       37.6      30.06       31.7      0.002       12.0       12.0         80       38.9         78       37.6       0.00       0.00
2:00am            337        1.0        9.0         79       37.6      30.06       31.7      0.003       12.0       12.0         80       38.9         78       37.6       0.00       0.00
2:05am            278        1.0        4.0         79       37.6      30.06       31.7      0.003       12.0       12.0         80       38.9         78       37.6       0.00       0.00
2:10am            258        1.0        5.0         79       37.6      30.06       31.7      0.003       12.0       12.0         80       38.9         78       37.6       0.00       0.00
2:15am            264        0.0        5.0         79       37.6      30.06       31.7      0.000       12.0       12.0         80       38.9         78       37.6       0.00       0.00
2:20am            264        2.0        5.0         79       37.6      30.06       31.7      0.000       12.0       12.0         80       38.9         78       37.6       0.00       0.00
2:25am            269        0.0        6.0         79       37.6      30.06       31.7      0.000       12.0       12.0         80       38.9         78       37.6       0.00       0.00
2:30am            247        0.0        6.0         79       37.6      30.06       31.7      0.000       12.0       12.0         80       38.9         78       37.6       0.00       0.00
2:35am            293        7.0        7.0         79       37.6      30.06       31.7      0.000       12.0       12.0         80       38.9         78       37.6       0.00       0.00
2:40am            259        6.0        8.0         79       37.5      30.06       31.6      0.000       12.0       12.0         80       38.9         78       37.5       0.00       0.00
2:45am            330        2.0        8.0         79       37.3      30.06       31.4      0.002       12.0       12.0         80       38.9         78       37.3       0.00       0.00
2:50am            278        1.0        8.0         78       37.3      30.06       31.1      0.002       12.0       12.0         80       38.9         78       37.3       0.00       0.00
2:55am            269        0.0        8.0         78       37.2      30.06       31.0      0.002       12.0       12.0         80       38.9         78       37.2       0.00       0.00
3:00am            279        0.0        8.0         78       37.0      30.06       30.8      0.004       12.0       12.0         80       38.9         78       37.0       0.00       0.00
3:05am            279        0.0        2.0         77       37.0      30.06       30.5      0.003       12.0       12.0         80       38.9         77       37.0       0.00       0.00
3:10am            288        1.0        3.0         77       37.0      30.06       30.5      0.003       12.0       12.0         80       38.9         77       37.0       0.00       0.00
3:15am            288        1.0        3.0         77       36.9      30.06       30.4      0.003       12.0       12.0         80       38.9         77       36.9       0.00       0.00
3:20am            288        0.0        3.0         77       36.9      30.06       30.4      0.003       12.0       12.0         80       38.9         77       36.9       0.00       0.00
3:25am            286        0.0        3.0         77       36.9      30.06       30.4      0.002       12.0       12.0         80       38.9         77       36.9       0.00       0.00
3:30am            331        0.0        3.0         77       36.9      30.06       30.4      0.004       12.0       12.0         80       38.9         77       36.9       0.00       0.00
3:35am            331        0.0        3.0         77       36.9      30.06       30.4      0.004       12.0       12.0         80       38.9         77       36.9       0.00       0.00
3:40am            321        0.0        3.0         76       36.8      30.06       30.0      0.004       12.0       12.0         80       38.9         76       36.8       0.00       0.00
3:45am            279        0.0        5.0         76       36.8      30.07       30.0      0.008       12.0       12.0         80       38.9         76       36.8       0.00       0.00
3:50am            279        0.0        5.0         76       36.8      30.07       30.0      0.008       12.0       12.0         80       38.9         76       36.8       0.00       0.00
3:55am            275        0.0        6.0         76       36.8      30.07       30.0      0.007       12.0       12.0         80       38.9         76       36.8       0.00       0.00
4:00am            309        0.0        6.0         75       36.6      30.07       29.4      0.010       12.0       12.0         80       38.9         75       36.6       0.00       0.00
4:05am            268        1.0       12.0         75       36.5      30.07       29.3      0.009       12.0       12.0         80       38.9         75       36.5       0.00       0.00
4:10am            266        1.0       12.0         74       36.5      30.07       29.0      0.009       12.0       12.0         80       38.9         74       36.5       0.00       0.00
4:15am            264        6.0       12.0         74       36.3      30.08       28.8      0.012       12.0       12.0         80       38.9         74       36.3       0.00       0.00
4:20am            272        2.0       12.0         74       36.2      30.08       28.7      0.011       12.0       12.0         80       38.9         74       36.2       0.00       0.00
4:25am            275        0.0       12.0         74       36.0      30.08       28.5      0.010       12.0       12.0         80       38.9         74       36.0       0.00       0.00
4:30am            278        1.0       12.0         74       36.0      30.08       28.5      0.012       12.0       12.0         80       38.9         74       36.0       0.00       0.00
4:35am            276        4.0       12.0         74       35.9      30.08       28.4      0.011       12.0       12.0         80       38.9         74       35.9       0.00       0.00
4:40am            276        0.0       12.0         74       35.8      30.08       28.3      0.010       12.0       12.0         80       38.9         74       35.8       0.00       0.00
4:45am            279        7.0       12.0         74       35.8      30.09       28.3      0.020       12.0       12.0         80       38.9         74       35.8       0.00       0.00
4:50am            275        1.0       12.0         74       35.6      30.09       28.1      0.019       12.0       12.0         80       38.9         74       35.6       0.00       0.00
4:55am            275        0.0       12.0         75       35.5      30.09       28.4      0.017       12.0       12.0         80       38.9         74       35.5       0.00       0.00
5:00am            273        1.0       12.0         75       35.3      30.09       28.2      0.019       12.0       12.0         80       38.9         74       35.3       0.00       0.00
5:05am            272        5.0        5.0         75       35.0      30.09       27.9      0.017       12.0       12.0         80       38.9         74       35.0       0.00       0.00
5:10am            273        1.0        6.0         75       34.9      30.09       27.8      0.016       12.0       12.0         80       38.9         74       34.9       0.00       0.00
5:15am            273        2.0        6.0         76       34.7      30.10       27.9      0.023       12.0       12.0         80       38.9         74       34.7       0.00       0.00
5:20am            273        2.0        6.0         76       34.6      30.10       27.8      0.021       12.0       12.0         80       38.9         74       34.6       0.00       0.00
5:25am            272        1.0        6.0         76       34.3      30.10       27.5      0.019       12.0       12.0         80       38.9         74       34.3       0.00       0.00
5:30am            266        0.0        6.0         76       34.1      30.11       27.3      0.026       12.0       12.0         80       38.9         74       34.1       0.00       0.00
5:35am            268        1.0        6.0         76       33.8      30.11       27.0      0.024       12.0       12.0         80       38.9         74       33.8       0.00       0.00
5:40am            268        2.0        6.0         76       33.7      30.11       27.0      0.022       12.0       12.0         80       38.9         74       33.7       0.00       0.00
5:45am            268        0.0        6.0         76       33.5      30.11       26.8      0.024       12.0       12.0         80       38.9         74       33.5       0.00       0.00
5:50am            268        1.0        6.0         76       33.4      30.11       26.7      0.022       12.0       12.0         80       38.9         74       33.4       0.00       0.00
5:55am            268        0.0        6.0         76       33.2      30.11       26.5      0.020       12.0       12.0         80       38.9         74       33.2       0.00       0.00
6:00am            268        2.0        6.0         76       33.1      30.12       26.4      0.026       12.0       12.0         80       38.9         74       33.1       0.00       0.00
6:05am            265        0.0        6.0         77       32.9      30.12       26.5      0.024       12.0       12.0         80       38.9         74       32.9       0.00       0.00
6:10am            266        1.0        6.0         77       32.8      30.12       26.4      0.022       12.0       12.0         80       38.9         74       32.8       0.00       0.00
6:15am            266        0.0        6.0         77       32.7      30.13       26.3      0.029       12.0       12.0         80       38.9         74       32.7       0.00       0.00
6:20am            266        7.0        7.0         77       32.5      30.13       26.1      0.027       12.0       12.0         80       38.9         74       32.5       0.00       0.00
6:25am            268        0.0        7.0         77       32.4      30.13       26.0      0.025       12.0       12.0         80       38.9         74       32.4       0.00       0.00
6:30am            269        1.0        7.0         77       32.4      30.14       26.0      0.036       12.0       12.0         80       38.9         74       32.2       0.00       0.00
6:35am            269        2.0        7.0         77       32.2      30.14       25.8      0.033       12.0       12.0         80       38.9         74       32.2       0.00       0.00
6:40am            269        0.0        7.0         77       32.4      30.14       26.0      0.030       12.0       12.0         80       38.9         74       32.2       0.00       0.00
6:45am            269        3.0        7.0         76       32.7      30.15       26.0      0.032       12.0       12.0         80       38.9         74       32.2       0.00       0.00
6:50am            269        5.0        7.0         76       32.7      30.15       26.0      0.029       12.0       12.0         80       38.9         74       32.2       0.00       0.00
6:55am            269        0.0        7.0         76       32.9      30.15       26.2      0.027       12.0       12.0         80       38.9         74       32.2       0.00       0.00
7:00am            269        0.0        7.0         76       33.2      30.16       26.5      0.035       12.0       12.0         80       38.9         74       32.2       0.00       0.00
7:05am            279        7.0        8.0         75       33.1      30.16       26.1      0.033       12.0       12.0         80       38.9         74       32.2       0.00       0.00
7:10am            235        8.0       11.0         76       32.8      30.16       26.1      0.030       12.0       12.0         80       38.9         74       32.2       0.00       0.00
7:15am            312        3.0       11.0         76       32.8      30.16       26.1      0.031       12.0       12.0         80       38.9         74       32.2       0.00       0.00
7:20am            282        2.0       11.0         76       32.9      30.16       26.2      0.028       12.0       12.0         80       38.9         74       32.2       0.00       0.00
7:25am            276        1.0       11.0         76       33.2      30.16       26.5      0.026       12.0       12.0         80       38.9         74       32.2       0.00       0.00
7:30am            273        5.0       11.0         75       33.7      30.16       26.6      0.025       12.0       12.0         80       38.9         74       32.2       0.00       0.00
7:35am            276        3.0       11.0         73       33.7      30.16       26.0      0.023       12.0       12.0         80       38.9         73       32.2       0.00       0.00
7:40am            288        2.0       11.0         72       33.8      30.16       25.7      0.021       12.0       12.0         80       38.9         72       32.2       0.00       0.00
7:45am            333        2.0       11.0         70       33.8      30.17       25.1      0.024       12.0       12.0         80       38.9         70       32.2       0.00       0.00
7:50am            285        2.0       11.0         67       34.0      30.17       24.2      0.022       12.0       12.0         80       38.9         67       32.2       0.00       0.00
7:55am            288        2.0       11.0         66       34.0      30.17       23.9      0.021       12.0       12.0         80       38.9         66       32.2       0.00       0.00
8:00am            273        2.0       11.0         64       34.1      30.17       23.2      0.021       12.0       12.0         80       38.9         64       32.2       0.00       0.00
8:05am            240        4.0       11.0         63       34.1      30.17       22.8      0.019       12.0       12.0         80       38.9         63       32.2       0.00       0.00
8:10am            272        4.0       12.0         61       34.1      30.17       22.1      0.018       12.0       12.0         80       38.9         60       32.2       0.00       0.00
8:15am            293        9.0       12.0         61       34.6      30.16       22.5      0.013       12.0       12.0         80       38.9         60       32.2       0.00       0.00
8:20am            288        3.0       16.0         60       34.7      30.16       22.3      0.012       16.0       16.0         80       38.9         60       32.2       0.00       0.00
8:25am            290        1.0       16.0         59       34.6      30.16       21.8      0.011       16.0       16.0         80       38.9         58       32.2       0.00       0.00
8:30am            240        7.0       16.0         57       34.9      30.17       21.2      0.013       16.0       16.0         80       38.9         57       32.2       0.00       0.00
8:35am            275        5.0       16.0         57       34.9      30.17       21.2      0.012       16.0       16.0         80       38.9         56       32.2       0.00       0.00
8:40am            317        5.0       16.0         56       35.2      30.17       21.1      0.011       16.0       16.0         80       38.9         56       32.2       0.00       0.00
8:45am            296        3.0       16.0         57       35.3      30.17       21.6      0.012       16.0       16.0         80       38.9         56       32.2       0.00       0.00
8:50am            320        2.0       16.0         55       35.8      30.17       21.2      0.011       16.0       16.0         80       38.9         55       32.2       0.00       0.00
8:55am            280        5.0       16.0         54       35.5      30.17       20.5      0.010       16.0       16.0         80       38.9         54       32.2       0.00       0.00
9:00am            286        2.0       16.0         54       35.2      30.18       20.2      0.016       16.0       16.0         80       38.9         54       32.2       0.00       0.00
9:05am            344        3.0       12.0         54       34.7      30.18       19.8      0.015       16.0       16.0         80       38.9         54       32.2       0.00       0.00
9:10am            293        2.0       12.0         55       34.7      30.18       20.2      0.014       16.0       16.0         80       38.9         54       32.2       0.00       0.00
9:15am            273        3.0       12.0         58       35.8      30.18       22.5      0.015       16.0       16.0         80       38.9         54       32.2       0.00       0.00
9:20am            283        6.0       12.0         54       36.0      30.18       21.0      0.014       16.0       16.0         80       38.9         54       32.2       0.00       0.00
9:25am            276        2.0       12.0         54       36.0      30.18       21.0      0.013       16.0       16.0         80       38.9         53       32.2       0.00       0.00
9:30am            242        7.0       12.0         54       35.6      30.18       20.6      0.014       16.0       16.0         80       38.9         53       32.2       0.00       0.00
9:35am            249        5.0       12.0         53       35.5      30.18       20.1      0.012       16.0       16.0         80       38.9         53       32.2       0.00       0.00
9:40am            269        3.0       12.0         54       36.3      30.18       21.3      0.011       16.0       16.0         80       38.9         53       32.2       0.00       0.00
9:45am            326        6.0       12.0         55       36.6      30.18       22.0      0.010       16.0       16.0         80       38.9         52       32.2       0.00       0.00
9:50am            273        6.0       12.0         55       37.2      30.18       22.5      0.009       16.0       16.0         80       38.9         52       32.2       0.00       0.00
9:55am            275        0.0       13.0         51       36.6      30.18       20.2      0.008       16.0       16.0         80       38.9         50       32.2       0.00       0.00
10:00am           175       13.0       13.0         51       37.2      30.18       20.8      0.003       16.0       16.0         80       38.9         50       32.2       0.00       0.00
10:05am           282        5.0       13.0         50       36.9      30.18       20.0      0.003       16.0       16.0         80       38.9         49       32.2       0.00       0.00
10:10am           275        6.0       13.0         51       36.8      30.18       20.4      0.003       16.0       16.0         80       38.9         49       32.2       0.00       0.00
10:15am           273        2.0       13.0         50       36.6      30.18       19.7      0.002       16.0       16.0         80       38.9         48       32.2       0.00       0.00
10:20am           248        2.0       13.0         50       36.8      30.18       19.9      0.002       16.0       16.0         80       38.9         48       32.2       0.00       0.00
10:25am           324        6.0       13.0         52       37.6      30.18       21.6      0.001       16.0       16.0         80       38.9         48       32.2       0.00       0.00
10:30am           328        6.0       13.0         52       38.0      30.17       22.0     -0.006       16.0       16.0         80       38.9         48       32.2       0.00       0.00
10:35am           264        5.0       13.0         48       38.2      30.17       20.3     -0.005       16.0       16.0         80       38.9         48       32.2       0.00       0.00
10:40am           312        2.0       13.0         49       38.8      30.17       21.3     -0.005       16.0       16.0         80       38.9         47       32.2       0.00       0.00
10:45am           326        2.0       13.0         48       39.2      30.17       21.2     -0.002       16.0       16.0         80       39.2         47       32.2       0.00       0.00
10:50am           280        2.0       13.0         50       39.1      30.17       22.0     -0.002       16.0       16.0         80       39.2         47       32.2       0.00       0.00
10:55am           312        3.0       13.0         46       38.9      30.17       19.9     -0.002       16.0       16.0         80       39.2         46       32.2       0.00       0.00
11:00am           288        1.0       13.0         45       39.3      30.16       19.8     -0.007       16.0       16.0         80       39.3         45       32.2       0.00       0.00
11:05am           280        7.0       10.0         43       39.5      30.16       18.9     -0.006       16.0       16.0         80       39.5         41       32.2       0.00       0.00
11:10am           319        4.0       12.0         46       39.6      30.16       20.5     -0.006       16.0       16.0         80       39.6         41       32.2       0.00       0.00
11:15am           262        1.0       12.0         44       39.8      30.16       19.7     -0.007       16.0       16.0         80       39.8         41       32.2       0.00       0.00
11:20am           271        6.0       12.0         43       40.1      30.16       19.4     -0.007       16.0       16.0         80       40.2         41       32.2       0.00       0.00
11:25am           285        5.0       12.0         44       39.5      30.16       19.4     -0.006       16.0       16.0         80       40.2         41       32.2       0.00       0.00
11:30am           316        5.0       12.0         47       39.6      30.16       21.0     -0.007       16.0       16.0         80       40.2         41       32.2       0.00       0.00
11:35am           334        1.0       12.0         46       39.2      30.16       20.2     -0.006       16.0       16.0         80       40.2         41       32.2       0.00       0.00
11:40am           170        1.0       12.0         45       40.1      30.16       20.5     -0.006       16.0       16.0         80       40.2         41       32.2       0.00       0.00
11:45am           279        0.0       12.0         43       40.6      30.16       19.9     -0.012       16.0       16.0         80       40.6         41       32.2       0.00       0.00
11:50am           304        1.0       12.0         43       40.5      30.16       19.8     -0.011       16.0       16.0         80       40.8         40       32.2       0.00       0.00
11:55am           286        2.0       12.0         41       40.9      30.16       19.0     -0.010       16.0       16.0         80       40.9         40       32.2       0.00       0.00
12:00pm           266        4.0       12.0         44       41.3      30.15       21.0     -0.014       16.0       16.0         80       41.3         40       32.2       0.00       0.00
12:05pm           292        2.0        5.0         44       41.8      30.15       21.5     -0.013       16.0       16.0         80       41.8         40       32.2       0.00       0.00
12:10pm           279        5.0        9.0         41       41.9      30.15       19.9     -0.012       16.0       16.0         80       41.9         39       32.2       0.00       0.00
12:15pm           258        6.0        9.0         41       41.6      30.15       19.7     -0.016       16.0       16.0         80       41.9         38       32.2       0.00       0.00
12:20pm           343        2.0       11.0         43       41.5      30.15       20.7     -0.015       16.0       16.0         80       41.9         38       32.2       0.00       0.00
12:25pm           251        3.0       11.0         44       41.5      30.15       21.2     -0.014       16.0       16.0         80       41.9         38       32.2       0.00       0.00
12:30pm           328        3.0       11.0         41       41.5      30.14       19.6     -0.013       16.0       16.0         80       41.9         38       32.2       0.00       0.00
12:35pm           316        3.0       11.0         44       42.5      30.14       22.1     -0.012       16.0       16.0         80       42.5         38       32.2       0.00       0.00
12:40pm           286        6.0       11.0         38       42.8      30.14       19.0     -0.011       16.0       16.0         80       42.8         36       32.2       0.00       0.00
12:45pm           279        1.0       11.0         34       42.3      30.14       15.9     -0.011       16.0       16.0         80       42.8         34       32.2       0.00       0.00
12:50pm           283        7.0       11.0         40       42.2      30.14       19.6     -0.011       16.0       16.0         80       42.8         34       32.2       0.00       0.00
12:55pm           324        6.0       11.0         43       42.5      30.14       21.6     -0.010       16.0       16.0         80       42.8         34       32.2       0.00       0.00
1:00pm            280        4.0       11.0         38       42.5      30.13       18.7     -0.019       16.0       16.0         80       42.8         34       32.2       0.00       0.00
1:05pm            289        0.0        6.0         41       43.1      30.13       21.0     -0.017       16.0       16.0         80       43.1         34       32.2       0.00       0.00
1:10pm            237        6.0       11.0         35       43.1      30.13       17.3     -0.016       16.0       16.0         80       43.3         34       32.2       0.00       0.00
1:15pm            331        2.0       11.0         38       42.6      30.13       18.8     -0.022       16.0       16.0         80       43.3         34       32.2       0.00       0.00
1:20pm            282        2.0       11.0         37       42.8      30.13       18.3     -0.020       16.0       16.0         80       43.3         34       32.2       0.00       0.00
1:25pm            172        1.0       11.0         37       43.3      30.13       18.8     -0.018       16.0       16.0         80       43.3         34       32.2       0.00       0.00
1:30pm            254        2.0       11.0         37       43.3      30.12       18.8     -0.027       16.0       16.0         80       43.3         34       32.2       0.00       0.00
1:35pm            345        3.0       11.0         37       42.6      30.12       18.2     -0.024       16.0       16.0         80       43.3         34       32.2       0.00       0.00
1:40pm            241        3.0       11.0         37       42.5      30.12       18.1     -0.023       16.0       16.0         80       43.3         34       32.2       0.00       0.00
1:45pm            269        1.0       11.0         39       43.1      30.11       19.8     -0.031       16.0       16.0         80       43.3         34       32.2       0.00       0.00
1:50pm            320        1.0       11.0         36       43.3      30.11       18.2     -0.028       16.0       16.0         80       43.5         34       32.2       0.00       0.00
1:55pm            293        3.0       11.0         38       43.2      30.11       19.3     -0.026       16.0       16.0         80       43.5         34       32.2       0.00       0.00
2:00pm            268        3.0       11.0         41       43.1      30.09       21.0     -0.037       16.0       16.0         80       43.5         34       32.2       0.00       0.00
2:05pm            320        0.0        6.0         38       42.6      30.09       18.8     -0.034       16.0       16.0         80       43.5         34       32.2       0.00       0.00
2:10pm            288        3.0        7.0         38       43.2      30.09       19.3     -0.031       16.0       16.0         80       43.5         34       32.2       0.00       0.00
2:15pm            282        3.0       10.0         36       43.5      30.08       18.3     -0.038       16.0       16.0         80       43.5         34       32.2       0.00       0.00
2:20pm            244        1.0       10.0         35       44.1      30.08       18.2     -0.035       16.0       16.0         80       44.1         33       32.2       0.00       0.00
2:25pm            259        0.0       10.0         35       44.8      30.08       18.8     -0.032       16.0       16.0         80       44.8         33       32.2       0.00       0.00
2:30pm            241        2.0       10.0         32       45.1      30.08       17.0     -0.034       16.0       16.0         80       45.1         32       32.2       0.00       0.00
2:35pm            265        3.0       10.0         34       45.4      30.08       18.7     -0.031       16.0       16.0         80       45.4         32       32.2       0.00       0.00
2:40pm            261        1.0       10.0         31       44.9      30.08       16.1     -0.029       16.0       16.0         80       45.4         31       32.2       0.00       0.00
2:45pm            132        3.0       10.0         37       44.8      30.07       20.1     -0.038       16.0       16.0         80       45.4         31       32.2       0.00       0.00
2:50pm            259        2.0       10.0         33       44.6      30.07       17.3     -0.035       16.0       16.0         80       45.4         31       32.2       0.00       0.00
2:55pm            317        2.0       10.0         31       44.5      30.07       15.8     -0.032       16.0       16.0         80       45.4         31       32.2       0.00       0.00
3:00pm            317        0.0       10.0         34       43.9      30.06       17.4     -0.032       16.0       16.0         80       45.4         31       32.2       0.00       0.00
3:05pm            328        4.0        6.0         35       43.6      30.06       17.8     -0.029       16.0       16.0         80       45.4         31       32.2       0.00       0.00
3:10pm            328        1.0        7.0         31       43.1      30.06       14.5     -0.027       16.0       16.0         80       45.4         31       32.2       0.00       0.00
3:15pm            328        0.0        7.0         37       43.2      30.05       18.7     -0.036       16.0       16.0         80       45.4         31       32.2       0.00       0.00
3:20pm            273        7.0        8.0         34       43.1      30.05       16.7     -0.033       16.0       16.0         80       45.4         31       32.2       0.00       0.00
3:25pm            273        0.0        8.0         34       43.2      30.05       16.7     -0.030       16.0       16.0         80       45.4         31       32.2       0.00       0.00
3:30pm            276        1.0        8.0         33       43.6      30.05       16.4     -0.028       16.0       16.0         80       45.4         31       32.2       0.00       0.00
3:35pm            276        0.0        8.0         33       43.6      30.05       16.4     -0.025       16.0       16.0         80       45.4         31       32.2       0.00       0.00
3:40pm             66        0.0        8.0         34       44.1      30.05       17.5     -0.023       16.0       16.0         80       45.4         31       32.2       0.00       0.00
3:45pm            336        5.0        8.0         36       44.2      30.05       19.0     -0.023       16.0       16.0         80       45.4         31       32.2       0.00       0.00
3:50pm            336        3.0        8.0         31       43.5      30.05       14.9     -0.021       16.0       16.0         80       45.4         31       32.2       0.00       0.00
3:55pm            334        0.0        8.0         32       43.2      30.05       15.4     -0.019       16.0       16.0         80       45.4         31       32.2       0.00       0.00
4:00pm            334        0.0        8.0         33       43.1      30.05       16.0     -0.020       16.0       16.0         80       45.4         31       32.2       0.00       0.00
4:05pm            334        1.0        2.0         35       43.3      30.05       17.5     -0.018       16.0       16.0         80       45.4         31       32.2       0.00       0.00
4:10pm            327        0.0        2.0         34       43.5      30.05       17.0     -0.017       16.0       16.0         80       45.4         31       32.2       0.00       0.00
4:15pm            327        2.0        7.0         38       43.1      30.06       19.2     -0.008       16.0       16.0         80       45.4         31       32.2       0.00       0.00
4:20pm            327        0.0        7.0         37       42.9      30.06       18.4     -0.008       16.0       16.0         80       45.4         31       32.2       0.00       0.00
4:25pm            268        3.0        7.0         33       42.9      30.06       15.8     -0.007       16.0       16.0         80       45.4         31       32.2       0.00       0.00
4:30pm            268        0.0        7.0         34       42.8      30.06       16.4     -0.006       16.0       16.0         80       45.4         31       32.2       0.00       0.00
4:35pm            268        0.0        7.0         34       42.6      30.06       16.2     -0.006       16.0       16.0         80       45.4         31       32.2       0.00       0.00
4:40pm            269        0.0        7.0         35       42.8      30.06       17.1     -0.005       16.0       16.0         80       45.4         31       32.2       0.00       0.00
4:45pm            269        0.0        7.0         35       42.6      30.07       16.9      0.003       16.0       16.0         80       45.4         31       32.2       0.00       0.00
4:50pm            271        0.0        7.0         35       42.8      30.07       17.1      0.003       16.0       16.0         80       45.4         31       32.2       0.00       0.00
4:55pm            271        0.0        7.0         33       42.8      30.07       15.7      0.002       16.0       16.0         80       45.4         31       32.2       0.00       0.00
5:00pm            271        0.0        7.0         35       42.6      30.07       16.9      0.004       16.0       16.0         80       45.4         31       32.2       0.00       0.00
5:05pm            269        0.0        5.0         33       42.6      30.07       15.5      0.004       16.0       16.0         80       45.4         31       32.2       0.00       0.00
5:10pm            271        0.0        5.0         34       42.6      30.07       16.2      0.004       16.0       16.0         80       45.4         31       32.2       0.00       0.00
5:15pm            271        1.0        5.0         34       42.6      30.07       16.2      0.008       16.0       16.0         80       45.4         31       32.2       0.00       0.00
5:20pm            269        0.0        5.0         33       42.6      30.07       15.5      0.008       16.0       16.0         80       45.4         31       32.2       0.00       0.00
5:25pm            269        0.0        5.0         32       42.6      30.07       14.8      0.007       16.0       16.0         80       45.4         31       32.2       0.00       0.00
5:30pm            271        1.0        5.0         32       42.5      30.07       14.7      0.004       16.0       16.0         80       45.4         31       32.2       0.00       0.00
5:35pm            271        0.0        5.0         35       42.5      30.07       16.8      0.004       16.0       16.0         80       45.4         31       32.2       0.00       0.00
5:40pm            269        1.0        5.0         34       42.3      30.07       15.9      0.004       16.0       16.0         80       45.4         31       32.2       0.00       0.00
5:45pm            268        0.0        5.0         34       42.3      30.08       15.9      0.009       16.0       16.0         80       45.4         31       32.2       0.00       0.00
5:50pm            269        0.0        5.0         36       42.3      30.08       17.3      0.009       16.0       16.0         80       45.4         31       32.2       0.00       0.00
5:55pm            269        0.0        5.0         35       42.2      30.08       16.5      0.008       16.0       16.0         80       45.4         31       32.2       0.00       0.00
6:00pm            269        0.0        5.0         37       42.1      30.07       17.7      0.002       16.0       16.0         80       45.4         31       32.2       0.00       0.00
6:05pm            268        0.0        2.0         39       41.9      30.07       18.8      0.002       16.0       16.0         80       45.4         31       32.2       0.00       0.00
6:10pm            268        0.0        2.0         38       41.8      30.07       18.1      0.002       16.0       16.0         80       45.4         31       32.2       0.00       0.00
6:15pm            268        0.0        2.0         38       41.6      30.07       17.9     -0.001       16.0       16.0         80       45.4         31       32.2       0.00       0.00
6:20pm            268        1.0        2.0         37       41.6      30.07       17.3     -0.001       16.0       16.0         80       45.4         31       32.2       0.00       0.00
6:25pm            268        0.0        2.0         38       41.5      30.07       17.8     -0.001       16.0       16.0         80       45.4         31       32.2       0.00       0.00
6:30pm            268        0.0        2.0         37       41.3      30.07       17.0      0.002       16.0       16.0         80       45.4         31       32.2       0.00       0.00
6:35pm            269        0.0        2.0         39       41.3      30.07       18.2      0.002       16.0       16.0         80       45.4         31       32.2       0.00       0.00
6:40pm            269        2.0        2.0         39       41.2      30.07       18.1      0.002       16.0       16.0         80       45.4         31       32.2       0.00       0.00
6:45pm            268        0.0        2.0         39       41.2      30.08       18.1      0.010       16.0       16.0         80       45.4         31       32.2       0.00       0.00
6:50pm            268        0.0        2.0         38       41.1      30.08       17.4      0.010       16.0       16.0         80       45.4         31       32.2       0.00       0.00
6:55pm            269        0.0        2.0         38       41.1      30.08       17.4      0.009       16.0       16.0         80       45.4         31       32.2       0.00       0.00
7:00pm            268        0.0        2.0         40       40.9      30.08       18.5      0.002       16.0       16.0         80       45.4         31       32.2       0.00       0.00
7:05pm            269        0.0        0.0         38       40.8      30.08       17.2      0.002       16.0       16.0         80       45.4         31       32.2       0.00       0.00
7:10pm            269        0.0        0.0         40       40.8      30.08       18.4      0.002       16.0       16.0         80       45.4         31       32.2       0.00       0.00
7:15pm            268        0.0        0.0         39       40.8      30.08       17.8      0.006       16.0       16.0         80       45.4         31       32.2       0.00       0.00
7:20pm            268        0.0        0.0         40       40.8      30.08       18.4      0.005       16.0       16.0         80       45.4         31       32.2       0.00       0.00
7:25pm            268        0.0        0.0         39       40.6      30.08       17.6      0.005       16.0       16.0         80       45.4         31       32.2       0.00       0.00
7:30pm            268        0.0        0.0         39       40.6      30.08       17.6      0.008       16.0       16.0         80       45.4         31       32.2       0.00       0.00
7:35pm            268        0.0        0.0         39       40.6      30.08       17.6      0.008       16.0       16.0         80       45.4         31       32.2       0.00       0.00
7:40pm            268        0.0        0.0         39       40.6      30.08       17.6      0.007       16.0       16.0         80       45.4         31       32.2       0.00       0.00
7:45pm            268        0.0        0.0         39       40.6      30.08       17.6      0.008       16.0       16.0         80       45.4         31       32.2       0.00       0.00
7:50pm            268        0.0        0.0         39       40.5      30.08       17.5      0.008       16.0       16.0         80       45.4         31       32.2       0.00       0.00
7:55pm            268        0.0        0.0         40       40.5      30.08       18.1      0.007       16.0       16.0         80       45.4         31       32.2       0.00       0.00
8:00pm            268        0.0        0.0         41       40.5      30.08       18.7      0.004       16.0       16.0         80       45.4         31       32.2       0.00       0.00
8:05pm            268        0.0        0.0         42       40.3      30.08       19.0      0.003       16.0       16.0         80       45.4         31       32.2       0.00       0.00
8:10pm            268        0.0        0.0         43       40.3      30.08       19.6      0.003       16.0       16.0         80       45.4         31       32.2       0.00       0.00
8:15pm            268        0.0        0.0         44       40.2      30.08       20.0     -0.001       16.0       16.0         80       45.4         31       32.2       0.00       0.00
8:20pm            269        0.0        0.0         43       40.1      30.08       19.4     -0.001       16.0       16.0         80       45.4         31       32.2       0.00       0.00
8:25pm            268        0.0        0.0         43       40.1      30.08       19.4     -0.001       16.0       16.0         80       45.4         31       32.2       0.00       0.00
8:30pm            268        0.0        0.0         43       39.9      30.08       19.2      0.001       16.0       16.0         80       45.4         31       32.2       0.00       0.00
8:35pm            269        0.0        0.0         43       39.9      30.08       19.2      0.001       16.0       16.0         80       45.4         31       32.2       0.00       0.00
8:40pm            268        0.0        0.0         43       40.1      30.08       19.4      0.001       16.0       16.0         80       45.4         31       32.2       0.00       0.00
8:45pm            269        0.0        0.0         42       40.1      30.08       18.9      0.001       16.0       16.0         80       45.4         31       32.2       0.00       0.00
8:50pm            268        0.0        1.0         44       40.1      30.08       20.0      0.001       16.0       16.0         80       45.4         31       32.2       0.00       0.00
8:55pm            268        0.0        1.0         44       40.1      30.08       20.0      0.001       16.0       16.0         80       45.4         31       32.2       0.00       0.00
9:00pm            268        0.0        1.0         44       39.9      30.08       19.8      0.005       16.0       16.0         80       45.4         31       32.2       0.00       0.00
9:05pm            268        0.0        0.0         45       39.9      30.08       20.3      0.004       16.0       16.0         80       45.4         31       32.2       0.00       0.00
9:10pm            268        0.0        0.0         46       39.8      30.08       20.7      0.004       16.0       16.0         80       45.4         31       32.2       0.00       0.00
9:15pm            268        0.0        0.0         46       39.6      30.08       20.5     -0.002       16.0       16.0         80       45.4         31       32.2       0.00       0.00
9:20pm            268        0.0        0.0         46       39.6      30.08       20.5     -0.002       16.0       16.0         80       45.4         31       32.2       0.00       0.00
9:25pm            268        0.0        0.0         47       39.5      30.08       21.0     -0.002       16.0       16.0         80       45.4         31       32.2       0.00       0.00
9:30pm            268        0.0        0.0         47       39.3      30.08       20.8     -0.005       16.0       16.0         80       45.4         31       32.2       0.00       0.00
9:35pm            268        0.0        0.0         47       39.3      30.08       20.8     -0.004       16.0       16.0         80       45.4         31       32.2       0.00       0.00
9:40pm            269        0.0        0.0         47       39.3      30.08       20.8     -0.004       16.0       16.0         80       45.4         31       32.2       0.00       0.00
9:45pm            269        0.0        0.0         47       39.2      30.08       20.7     -0.001       16.0       16.0         80       45.4         31       32.2       0.00       0.00
9:50pm            268        0.0        0.0         47       39.2      30.08       20.7     -0.001       16.0       16.0         80       45.4         31       32.2       0.00       0.00
9:55pm            268        0.0        0.0         47       39.2      30.08       20.7     -0.001       16.0       16.0         80       45.4         31       32.2       0.00       0.00
10:00pm           268        0.0        0.0         47       39.2      30.07       20.7     -0.009       16.0       16.0         80       45.4         31       32.2       0.00       0.00
10:05pm           269        0.0        0.0         47       39.2      30.07       20.7     -0.009       16.0       16.0         80       45.4         31       32.2       0.00       0.00
10:10pm           268        0.0        0.0         47       39.2      30.07       20.7     -0.008       16.0       16.0         80       45.4         31       32.2       0.00       0.00
10:15pm           268        0.0        0.0         48       39.2      30.07       21.2     -0.008       16.0       16.0         80       45.4         31       32.2       0.00       0.00
10:20pm           268        0.0        1.0         48       39.3      30.07       21.3     -0.008       16.0       16.0         80       45.4         31       32.2       0.00       0.00
10:25pm           269        0.0        1.0         49       39.3      30.07       21.8     -0.007       16.0       16.0         80       45.4         31       32.2       0.00       0.00
10:30pm           268        0.0        1.0         49       39.3      30.06       21.8     -0.015       16.0       16.0         80       45.4         31       32.2       0.00       0.00
10:35pm           268        0.0        1.0         50       39.3      30.06       22.2     -0.014       16.0       16.0         80       45.4         31       32.2       0.00       0.00
10:40pm           268        0.0        1.0         49       39.3      30.06       21.8     -0.013       16.0       16.0         80       45.4         31       32.2       0.00       0.00
10:45pm           268        0.0        2.0         51       39.3      30.05       22.7     -0.018       16.0       16.0         80       45.4         31       32.2       0.00       0.00
10:50pm           271        1.0        3.0         50       39.3      30.05       22.2     -0.016       16.0       16.0         80       45.4         31       32.2       0.00       0.00
10:55pm           338        2.0        5.0         50       39.3      30.05       22.2     -0.015       16.0       16.0         80       45.4         31       32.2       0.00       0.00


Yesterday's Data File

3/26/15
Time         Wind Dir   Wind Spd  Wind Gust   Humidity       Temp  Raw Barom  Dew Point Barom Rate Wind Spd H WindGust H Humidity H Temp Out H Humidity L Temp Out L  DailyRain   24HrRain
                            mph        mph          %         F         in         F      in/hr        mph        mph          %         F          %         F         in         in
12:00am           264        1.0        7.0         81       41.2      30.02       35.8      0.004        7.0        7.0         81       41.2         81       41.2       0.00       0.00
12:05am           259        1.0        3.0         81       41.2      30.02       35.8      0.004        7.0        7.0         81       41.2         81       41.2       0.00       0.00
12:10am           259        1.0        3.0         81       41.1      30.02       35.7      0.003        7.0        7.0         81       41.2         81       41.1       0.00       0.00
12:15am           278        4.0        5.0         80       40.9      30.02       35.2     -0.002        7.0        7.0         81       41.2         80       40.9       0.00       0.00
12:20am           286        2.0        7.0         80       40.9      30.02       35.2     -0.002        7.0        7.0         81       41.2         80       40.9       0.00       0.00
12:25am           271        2.0        7.0         80       40.8      30.02       35.1     -0.001        7.0        7.0         81       41.2         80       40.8       0.00       0.00
12:30am           271        0.0        7.0         80       40.6      30.02       34.9      0.002        7.0        7.0         81       41.2         80       40.6       0.00       0.00
12:35am           271        0.0        7.0         79       40.5      30.02       34.5      0.001        7.0        7.0         81       41.2         79       40.5       0.00       0.00
12:40am           241        0.0        7.0         79       40.5      30.02       34.5      0.001        7.0        7.0         81       41.2         79       40.5       0.00       0.00
12:45am           241        0.0        7.0         79       40.3      30.02       34.3      0.001        7.0        7.0         81       41.2         79       40.3       0.00       0.00
12:50am           258        0.0        7.0         78       40.3      30.02       34.0      0.001        7.0        7.0         81       41.2         78       40.3       0.00       0.00
12:55am           276        0.0        7.0         78       40.2      30.02       33.9      0.001        7.0        7.0         81       41.2         78       40.2       0.00       0.00
1:00am            278        1.0        7.0         77       40.1      30.02       33.5      0.001        7.0        7.0         81       41.2         77       40.1       0.00       0.00
1:05am            279        5.0        6.0         77       40.1      30.02       33.5      0.001        7.0        7.0         81       41.2         77       40.1       0.00       0.00
1:10am            302        0.0        6.0         76       40.1      30.02       33.2      0.001        7.0        7.0         81       41.2         76       40.1       0.00       0.00
1:15am            273        1.0        6.0         76       39.9      30.02       33.0     -0.000        7.0        7.0         81       41.2         76       39.9       0.00       0.00
1:20am            272        2.0        6.0         76       39.8      30.02       32.9     -0.000        7.0        7.0         81       41.2         76       39.8       0.00       0.00
1:25am            269        1.0        7.0         76       39.8      30.02       32.9     -0.000        7.0        7.0         81       41.2         76       39.8       0.00       0.00
1:30am            269        1.0        7.0         76       39.6      30.02       32.7     -0.002        7.0        7.0         81       41.2         76       39.6       0.00       0.00
1:35am            261        3.0        7.0         76       39.5      30.02       32.6     -0.002        7.0        7.0         81       41.2         76       39.5       0.00       0.00
1:40am            280        0.0        7.0         76       39.3      30.02       32.4     -0.002        7.0        7.0         81       41.2         76       39.3       0.00       0.00
1:45am            280        0.0        7.0         76       39.3      30.02       32.4      0.004        7.0        7.0         81       41.2         76       39.3       0.00       0.00
1:50am            268        0.0        7.0         76       39.2      30.02       32.3      0.004        7.0        7.0         81       41.2         76       39.2       0.00       0.00
1:55am            268        2.0        7.0         76       39.1      30.02       32.2      0.004        7.0        7.0         81       41.2         76       39.1       0.00       0.00
2:00am            265        0.0        7.0         76       38.9      30.02       32.0      0.000        7.0        7.0         81       41.2         76       38.9       0.00       0.00
2:05am            266        0.0        3.0         76       38.9      30.02       32.0      0.000        7.0        7.0         81       41.2         76       38.9       0.00       0.00
2:10am            265        2.0        5.0         76       38.8      30.02       31.9      0.000        7.0        7.0         81       41.2         76       38.8       0.00       0.00
2:15am            266        2.0        5.0         76       38.8      30.02       31.9      0.003        7.0        7.0         81       41.2         76       38.8       0.00       0.00
2:20am            265        2.0        5.0         76       38.8      30.02       31.9      0.003        7.0        7.0         81       41.2         76       38.8       0.00       0.00
2:25am            266        0.0        6.0         76       38.8      30.02       31.9      0.003        7.0        7.0         81       41.2         76       38.8       0.00       0.00
2:30am            266        1.0        6.0         76       38.6      30.02       31.7      0.003        7.0        7.0         81       41.2         76       38.6       0.00       0.00
2:35am            283        0.0        6.0         76       38.6      30.02       31.7      0.003        7.0        7.0         81       41.2         76       38.6       0.00       0.00
2:40am            282        0.0        6.0         76       38.6      30.02       31.7      0.003        7.0        7.0         81       41.2         76       38.6       0.00       0.00
2:45am            282        2.0        6.0         76       38.5      30.02       31.6      0.004        7.0        7.0         81       41.2         76       38.5       0.00       0.00
2:50am            272        0.0        6.0         76       38.5      30.02       31.6      0.003        7.0        7.0         81       41.2         76       38.5       0.00       0.00
2:55am            272        3.0        6.0         76       38.3      30.02       31.4      0.003        7.0        7.0         81       41.2         76       38.3       0.00       0.00
3:00am            272        0.0        6.0         76       38.3      30.04       31.4      0.015        7.0        7.0         81       41.2         76       38.3       0.00       0.00
3:05am            255        5.0        5.0         76       38.2      30.04       31.3      0.014        7.0        7.0         81       41.2         76       38.2       0.00       0.00
3:10am            240        0.0        7.0         75       38.0      30.04       30.8      0.012        7.0        7.0         81       41.2         75       38.0       0.00       0.00
3:15am            264        0.0        7.0         75       38.0      30.03       30.8      0.007        7.0        7.0         81       41.2         75       38.0       0.00       0.00
3:20am            262        0.0        7.0         75       37.9      30.03       30.7      0.006        7.0        7.0         81       41.2         75       37.9       0.00       0.00
3:25am            262        2.0        7.0         75       37.8      30.03       30.6      0.006        7.0        7.0         81       41.2         75       37.8       0.00       0.00
3:30am            262        0.0        7.0         75       37.8      30.03       30.6      0.005        7.0        7.0         81       41.2         75       37.8       0.00       0.00
3:35am            262        3.0        7.0         75       37.6      30.03       30.4      0.005        7.0        7.0         81       41.2         75       37.6       0.00       0.00
3:40am            264        0.0        7.0         75       37.5      30.03       30.3      0.004        7.0        7.0         81       41.2         75       37.5       0.00       0.00
3:45am            264        0.0        7.0         75       37.3      30.04       30.1      0.015        7.0        7.0         81       41.2         75       37.3       0.00       0.00
3:50am            264        0.0        7.0         75       37.3      30.04       30.1      0.014        7.0        7.0         81       41.2         75       37.3       0.00       0.00
3:55am            275        0.0        7.0         75       37.2      30.04       30.0      0.013        7.0        7.0         81       41.2         75       37.2       0.00       0.00
4:00am            266        2.0        7.0         76       37.0      30.05       30.2      0.014        7.0        7.0         81       41.2         75       37.0       0.00       0.00
4:05am            264        3.0        5.0         76       37.0      30.05       30.2      0.013        7.0        7.0         81       41.2         75       37.0       0.00       0.00
4:10am            262        1.0        5.0         76       36.9      30.05       30.1      0.012        7.0        7.0         81       41.2         75       36.9       0.00       0.00
4:15am            264        0.0        6.0         76       36.8      30.05       30.0      0.016        7.0        7.0         81       41.2         75       36.8       0.00       0.00
4:20am            262        0.0        6.0         76       36.6      30.05       29.8      0.015        7.0        7.0         81       41.2         75       36.6       0.00       0.00
4:25am            262        0.0        6.0         76       36.6      30.05       29.8      0.014        7.0        7.0         81       41.2         75       36.6       0.00       0.00
4:30am            262        0.0        6.0         76       36.5      30.06       29.7      0.023        7.0        7.0         81       41.2         75       36.5       0.00       0.00
4:35am            262        0.0        6.0         77       36.3      30.06       29.8      0.022        7.0        7.0         81       41.2         75       36.3       0.00       0.00
4:40am            262        0.0        6.0         77       36.2      30.06       29.7      0.020        7.0        7.0         81       41.2         75       36.2       0.00       0.00
4:45am            262        2.0        6.0         77       36.2      30.07       29.7      0.026        7.0        7.0         81       41.2         75       36.2       0.00       0.00
4:50am            262        0.0        6.0         77       36.0      30.07       29.5      0.024        7.0        7.0         81       41.2         75       36.0       0.00       0.00
4:55am            262        0.0        6.0         77       36.0      30.07       29.5      0.022        7.0        7.0         81       41.2         75       36.0       0.00       0.00
5:00am            262        1.0        6.0         77       35.9      30.08       29.4      0.028        7.0        7.0         81       41.2         75       35.9       0.00       0.00
5:05am            258        0.0        6.0         77       35.9      30.08       29.4      0.026        7.0        7.0         81       41.2         75       35.9       0.00       0.00
5:10am            254        2.0        7.0         77       35.9      30.08       29.4      0.024        7.0        7.0         81       41.2         75       35.9       0.00       0.00
5:15am            251        2.0        7.0         76       35.8      30.08       29.0      0.026        7.0        7.0         81       41.2         75       35.8       0.00       0.00
5:20am            273        3.0        7.0         76       35.6      30.08       28.8      0.024        7.0        7.0         81       41.2         75       35.6       0.00       0.00
5:25am            266        0.0        8.0         76       35.5      30.08       28.7      0.022        8.0        8.0         81       41.2         75       35.5       0.00       0.00
5:30am            269        3.0        8.0         76       35.5      30.09       28.7      0.028        8.0        8.0         81       41.2         75       35.5       0.00       0.00
5:35am            266        0.0        8.0         76       35.3      30.09       28.5      0.026        8.0        8.0         81       41.2         75       35.3       0.00       0.00
5:40am            268        1.0        8.0         77       35.2      30.09       28.7      0.024        8.0        8.0         81       41.2         75       35.2       0.00       0.00
5:45am            268        0.0        8.0         77       35.0      30.10       28.5      0.029        8.0        8.0         81       41.2         75       35.0       0.00       0.00
5:50am            268        0.0        8.0         77       34.9      30.10       28.4      0.026        8.0        8.0         81       41.2         75       34.9       0.00       0.00
5:55am            264        0.0        8.0         77       34.7      30.10       28.2      0.024        8.0        8.0         81       41.2         75       34.7       0.00       0.00
6:00am            264        0.0        8.0         77       34.6      30.10       28.1      0.024        8.0        8.0         81       41.2         75       34.6       0.00       0.00
6:05am            264        1.0        2.0         77       34.6      30.10       28.1      0.022        8.0        8.0         81       41.2         75       34.6       0.00       0.00
6:10am            262        0.0        3.0         77       34.4      30.10       27.9      0.021        8.0        8.0         81       41.2         75       34.4       0.00       0.00
6:15am            290        1.0        5.0         77       34.4      30.11       27.9      0.032        8.0        8.0         81       41.2         75       34.4       0.00       0.00
6:20am            290        0.0        5.0         77       34.3      30.11       27.9      0.029        8.0        8.0         81       41.2         75       34.3       0.00       0.00
6:25am            290        0.0        5.0         77       34.3      30.11       27.9      0.027        8.0        8.0         81       41.2         75       34.3       0.00       0.00
6:30am            289        0.0        5.0         78       34.3      30.11       28.2      0.027        8.0        8.0         81       41.2         75       34.3       0.00       0.00
6:35am            289        0.0        5.0         78       34.3      30.11       28.2      0.025        8.0        8.0         81       41.2         75       34.3       0.00       0.00
6:40am            289        0.0        5.0         78       34.4      30.11       28.3      0.023        8.0        8.0         81       41.2         75       34.3       0.00       0.00
6:45am            337        0.0        5.0         77       34.6      30.12       28.1      0.029        8.0        8.0         81       41.2         75       34.3       0.00       0.00
6:50am            337        0.0        5.0         77       34.7      30.12       28.2      0.026        8.0        8.0         81       41.2         75       34.3       0.00       0.00
6:55am            337        2.0        5.0         77       34.9      30.12       28.4      0.024        8.0        8.0         81       41.2         75       34.3       0.00       0.00
7:00am            336        1.0        6.0         76       34.9      30.12       28.1      0.026        8.0        8.0         81       41.2         75       34.3       0.00       0.00
7:05am            336        0.0        5.0         76       35.0      30.12       28.2      0.024        8.0        8.0         81       41.2         75       34.3       0.00       0.00
7:10am            336        0.0        5.0         76       34.9      30.12       28.1      0.022        8.0        8.0         81       41.2         75       34.3       0.00       0.00
7:15am            336        0.0        5.0         76       35.0      30.13       28.2      0.021        8.0        8.0         81       41.2         75       34.3       0.00       0.00
7:20am            336        0.0        5.0         75       34.9      30.13       27.8      0.020        8.0        8.0         81       41.2         75       34.3       0.00       0.00
7:25am            336        1.0        5.0         75       35.2      30.13       28.1      0.018        8.0        8.0         81       41.2         75       34.3       0.00       0.00
7:30am            336        0.0        5.0         75       35.6      30.12       28.5      0.014        8.0        8.0         81       41.2         75       34.3       0.00       0.00
7:35am            336        1.0        5.0         74       36.2      30.12       28.7      0.013        8.0        8.0         81       41.2         74       34.3       0.00       0.00
7:40am            331        3.0        7.0         73       36.6      30.12       28.8      0.012        8.0        8.0         81       41.2         73       34.3       0.00       0.00
7:45am            331        1.0        7.0         71       37.0      30.12       28.5      0.005        8.0        8.0         81       41.2         71       34.3       0.00       0.00
7:50am            327        3.0        7.0         69       37.6      30.12       28.4      0.004        8.0        8.0         81       41.2         69       34.3       0.00       0.00
7:55am            276        0.0        7.0         68       38.0      30.12       28.4      0.004        8.0        8.0         81       41.2         67       34.3       0.00       0.00
8:00am            283        4.0        8.0         65       38.5      30.12       27.8      0.009        8.0        8.0         81       41.2         65       34.3       0.00       0.00
8:05am            258        2.0        5.0         64       39.1      30.12       28.0      0.008        8.0        8.0         81       41.2         64       34.3       0.00       0.00
8:10am            278        3.0        7.0         62       39.5      30.12       27.6      0.007        8.0        8.0         81       41.2         62       34.3       0.00       0.00
8:15am            286        3.0       10.0         59       39.5      30.13       26.4      0.012       10.0       10.0         81       41.2         59       34.3       0.00       0.00
8:20am            309        0.0       12.0         60       39.3      30.13       26.6      0.011       12.0       12.0         81       41.2         58       34.3       0.00       0.00
8:25am            286        1.0       12.0         60       40.2      30.13       27.4      0.010       12.0       12.0         81       41.2         58       34.3       0.00       0.00
8:30am            269        6.0       12.0         57       40.2      30.12       26.2      0.001       12.0       12.0         81       41.2         57       34.3       0.00       0.00
8:35am            273        6.0       12.0         55       40.2      30.12       25.3      0.001       12.0       12.0         81       41.2         55       34.3       0.00       0.00
8:40am            326        3.0       12.0         55       40.3      30.12       25.4      0.001       12.0       12.0         81       41.2         54       34.3       0.00       0.00
8:45am            275        5.0       12.0         52       40.6      30.12       24.4      0.003       12.0       12.0         81       41.2         52       34.3       0.00       0.00
8:50am            324        7.0       12.0         56       41.1      30.12       26.6      0.003       12.0       12.0         81       41.2         52       34.3       0.00       0.00
8:55am            319        3.0       12.0         53       41.3      30.12       25.5      0.002       12.0       12.0         81       41.3         51       34.3       0.00       0.00
9:00am            304        2.0       12.0         52       41.5      30.12       25.2      0.000       12.0       12.0         81       41.5         51       34.3       0.00       0.00
9:05am            269        5.0       10.0         50       41.8      30.12       24.5      0.000       12.0       12.0         81       41.8         50       34.3       0.00       0.00
9:10am            268        2.0       11.0         49       41.5      30.12       23.8      0.000       12.0       12.0         81       41.8         49       34.3       0.00       0.00
9:15am            326        0.0       11.0         51       41.6      30.11       24.8     -0.009       12.0       12.0         81       41.8         49       34.3       0.00       0.00
9:20am            324        4.0       11.0         50       42.1      30.11       24.8     -0.008       12.0       12.0         81       42.1         49       34.3       0.00       0.00
9:25am            314        6.0       11.0         50       42.2      30.11       24.9     -0.007       12.0       12.0         81       42.2         49       34.3       0.00       0.00
9:30am            289        3.0       11.0         50       42.5      30.11       25.2     -0.009       12.0       12.0         81       42.5         49       34.3       0.00       0.00
9:35am            279        3.0       14.0         52       42.3      30.11       25.9     -0.008       14.0       14.0         81       42.5         49       34.3       0.00       0.00
9:40am            307        4.0       14.0         52       42.6      30.11       26.2     -0.007       14.0       14.0         81       42.8         49       34.3       0.00       0.00
9:45am            290        2.0       14.0         49       42.3      30.11       24.5     -0.005       14.0       14.0         81       42.8         49       34.3       0.00       0.00
9:50am            259        0.0       14.0         50       42.3      30.11       25.0     -0.004       14.0       14.0         81       42.8         49       34.3       0.00       0.00
9:55am            286        1.0       14.0         52       42.8      30.11       26.4     -0.004       14.0       14.0         81       42.8         49       34.3       0.00       0.00
10:00am           279        2.0       14.0         52       43.2      30.11       26.8     -0.008       14.0       14.0         81       43.2         49       34.3       0.00       0.00
10:05am           242        0.0       10.0         49       43.5      30.11       25.6     -0.007       14.0       14.0         81       43.5         49       34.3       0.00       0.00
10:10am           235        1.0       10.0         50       43.8      30.11       26.4     -0.006       14.0       14.0         81       43.8         49       34.3       0.00       0.00
10:15am           282        3.0       10.0         51       43.9      30.10       27.0     -0.010       14.0       14.0         81       44.1         49       34.3       0.00       0.00
10:20am           234        8.0       11.0         49       43.8      30.10       25.9     -0.009       14.0       14.0         81       44.1         48       34.3       0.00       0.00
10:25am           266        8.0       11.0         50       43.9      30.10       26.5     -0.008       14.0       14.0         81       44.1         48       34.3       0.00       0.00
10:30am           283        2.0       11.0         50       44.1      30.10       26.7     -0.014       14.0       14.0         81       44.1         48       34.3       0.00       0.00
10:35am           286        8.0       11.0         49       44.5      30.10       26.5     -0.013       14.0       14.0         81       44.5         48       34.3       0.00       0.00
10:40am           309        2.0       11.0         49       43.9      30.10       26.0     -0.012       14.0       14.0         81       44.5         47       34.3       0.00       0.00
10:45am           283        0.0       13.0         50       44.2      30.09       26.8     -0.016       14.0       14.0         81       44.5         47       34.3       0.00       0.00
10:50am           303        2.0       13.0         48       44.5      30.09       26.0     -0.014       14.0       14.0         81       44.5         47       34.3       0.00       0.00
10:55am           264        5.0       13.0         49       45.2      30.09       27.2     -0.013       14.0       14.0         81       45.2         47       34.3       0.00       0.00
11:00am           153        1.0       13.0         45       45.1      30.09       25.0     -0.015       14.0       14.0         81       45.4         45       34.3       0.00       0.00
11:05am           261        4.0       10.0         44       45.1      30.09       24.5     -0.014       14.0       14.0         81       45.4         44       34.3       0.00       0.00
11:10am           285        5.0       10.0         44       45.1      30.09       24.5     -0.013       14.0       14.0         81       45.4         44       34.3       0.00       0.00
11:15am           261        0.0       11.0         46       45.1      30.08       25.6     -0.021       14.0       14.0         81       45.4         44       34.3       0.00       0.00
11:20am           269        6.0       11.0         50       45.8      30.08       28.2     -0.019       14.0       14.0         81       45.8         44       34.3       0.00       0.00
11:25am           271        2.0       11.0         49       46.1      30.08       28.0     -0.017       14.0       14.0         81       46.1         44       34.3       0.00       0.00
11:30am           264        5.0       11.0         44       46.4      30.07       25.7     -0.021       14.0       14.0         81       46.4         44       34.3       0.00       0.00
11:35am           317        6.0       11.0         46       46.2      30.07       26.6     -0.019       14.0       14.0         81       46.4         44       34.3       0.00       0.00
11:40am           272        3.0       11.0         44       45.8      30.07       25.1     -0.018       14.0       14.0         81       46.4         44       34.3       0.00       0.00
11:45am           232        0.0       11.0         46       46.1      30.07       26.5     -0.022       14.0       14.0         81       46.4         44       34.3       0.00       0.00
11:50am           266        5.0       11.0         47       46.5      30.07       27.4     -0.020       14.0       14.0         81       46.5         44       34.3       0.00       0.00
11:55am           255        2.0       11.0         44       46.8      30.07       26.1     -0.019       14.0       14.0         81       46.8         44       34.3       0.00       0.00
12:00pm           252        2.0       11.0         44       47.0      30.06       26.2     -0.020       14.0       14.0         81       47.0         44       34.3       0.00       0.00
12:05pm           283        3.0       10.0         43       46.8      30.06       25.5     -0.019       14.0       14.0         81       47.1         43       34.3       0.00       0.00
12:10pm           269        3.0       10.0         45       46.8      30.06       26.6     -0.017       14.0       14.0         81       47.1         43       34.3       0.00       0.00
12:15pm           228        2.0       12.0         49       47.1      30.06       28.9     -0.019       14.0       14.0         81       47.1         43       34.3       0.00       0.00
12:20pm           248       10.0       12.0         46       47.6      30.06       27.9     -0.017       14.0       14.0         81       47.6         43       34.3       0.00       0.00
12:25pm           230        5.0       12.0         44       47.6      30.06       26.8     -0.016       14.0       14.0         81       47.6         43       34.3       0.00       0.00
12:30pm           295        6.0       13.0         45       47.7      30.06       27.4     -0.018       14.0       14.0         81       47.7         42       34.3       0.00       0.00
12:35pm           273        4.0       13.0         44       48.0      30.06       27.1     -0.016       14.0       14.0         81       48.0         42       34.3       0.00       0.00
12:40pm           159        6.0       13.0         44       48.0      30.06       27.1     -0.015       14.0       14.0         81       48.2         41       34.3       0.00       0.00
12:45pm           265        2.0       13.0         42       48.0      30.06       26.0     -0.016       14.0       14.0         81       48.2         41       34.3       0.00       0.00
12:50pm           245        7.0       13.0         45       48.8      30.06       28.4     -0.014       14.0       14.0         81       48.8         41       34.3       0.00       0.00
12:55pm           283        3.0       13.0         43       48.8      30.06       27.3     -0.013       14.0       14.0         81       48.8         41       34.3       0.00       0.00
1:00pm            272        6.0       13.0         42       48.6      30.05       26.6     -0.019       14.0       14.0         81       48.8         41       34.3       0.00       0.00
1:05pm            278        6.0       13.0         42       48.6      30.05       26.6     -0.018       14.0       14.0         81       48.8         41       34.3       0.00       0.00
1:10pm            269        6.0       13.0         41       48.5      30.05       25.9     -0.016       14.0       14.0         81       48.8         41       34.3       0.00       0.00
1:15pm            261        8.0       13.0         42       48.3      30.04       26.3     -0.022       14.0       14.0         81       48.8         41       34.3       0.00       0.00
1:20pm            266        0.0       13.0         43       48.6      30.04       27.1     -0.020       14.0       14.0         81       48.8         41       34.3       0.00       0.00
1:25pm            175        6.0       13.0         41       49.2      30.04       26.5     -0.018       14.0       14.0         81       49.2         41       34.3       0.00       0.00
1:30pm            306        4.0       13.0         39       49.2      30.04       25.3     -0.024       14.0       14.0         81       49.4         39       34.3       0.00       0.00
1:35pm            266        5.0       13.0         40       49.2      30.04       25.9     -0.022       14.0       14.0         81       49.4         39       34.3       0.00       0.00
1:40pm            295        5.0       13.0         40       49.2      30.04       25.9     -0.020       14.0       14.0         81       49.4         38       34.3       0.00       0.00
1:45pm            256        3.0       13.0         41       49.4      30.03       26.7     -0.025       14.0       14.0         81       49.4         38       34.3       0.00       0.00
1:50pm            255        2.0       13.0         43       49.5      30.03       27.9     -0.023       14.0       14.0         81       49.5         38       34.3       0.00       0.00
1:55pm            166        3.0       13.0         44       50.2      30.03       29.1     -0.022       14.0       14.0         81       50.2         38       34.3       0.00       0.00
2:00pm            265        3.0       13.0         41       50.7      30.02       27.9     -0.027       14.0       14.0         81       50.7         38       34.3       0.00       0.00
2:05pm            272        7.0       10.0         41       51.1      30.02       28.2     -0.025       14.0       14.0         81       51.1         38       34.3       0.00       0.00
2:10pm            173        6.0       10.0         41       51.0      30.02       28.1     -0.023       14.0       14.0         81       51.1         38       34.3       0.00       0.00
2:15pm            264        7.0       10.0         41       51.1      30.02       28.2     -0.022       14.0       14.0         81       51.1         38       34.3       0.00       0.00
2:20pm            153        6.0       11.0         41       50.5      30.02       27.7     -0.020       14.0       14.0         81       51.1         38       34.3       0.00       0.00
2:25pm            245        4.0       11.0         41       50.8      30.02       28.0     -0.018       14.0       14.0         81       51.1         38       34.3       0.00       0.00
2:30pm            280        2.0       11.0         39       50.8      30.01       26.8     -0.026       14.0       14.0         81       51.1         38       34.3       0.00       0.00
2:35pm            264        5.0       11.0         39       50.7      30.01       26.7     -0.024       14.0       14.0         81       51.1         38       34.3       0.00       0.00
2:40pm            245        6.0       11.0         40       50.7      30.01       27.3     -0.022       14.0       14.0         81       51.1         38       34.3       0.00       0.00
2:45pm            289        6.0       11.0         38       50.8      30.00       26.1     -0.027       14.0       14.0         81       51.1         38       34.3       0.00       0.00
2:50pm            231        0.0       11.0         42       51.0      30.00       28.7     -0.025       14.0       14.0         81       51.1         37       34.3       0.00       0.00
2:55pm            118        5.0       11.0         38       51.4      30.00       26.7     -0.023       14.0       14.0         81       51.4         36       34.3       0.00       0.00
3:00pm            252        3.0       11.0         38       51.6      30.00       26.8     -0.030       14.0       14.0         81       51.6         36       34.3       0.00       0.00
3:05pm            276        0.0        7.0         36       51.3      30.00       25.3     -0.027       14.0       14.0         81       51.6         35       34.3       0.00       0.00
3:10pm            269        1.0        7.0         38       51.3      30.00       26.6     -0.025       14.0       14.0         81       51.6         35       34.3       0.00       0.00
3:15pm            175        3.0        7.0         39       51.7      30.00       27.6     -0.024       14.0       14.0         81       51.7         35       34.3       0.00       0.00
3:20pm            278        3.0        7.0         37       52.2      30.00       26.7     -0.022       14.0       14.0         81       52.2         35       34.3       0.00       0.00
3:25pm            158        1.0        7.0         38       52.0      30.00       27.2     -0.021       14.0       14.0         81       52.2         35       34.3       0.00       0.00
3:30pm            175        1.0        7.0         42       52.5      29.99       30.1     -0.022       14.0       14.0         81       52.5         35       34.3       0.00       0.00
3:35pm            279        2.0        7.0         35       52.8      29.99       25.9     -0.020       14.0       14.0         81       52.9         35       34.3       0.00       0.00
3:40pm            247        5.0        7.0         35       52.8      29.99       25.9     -0.018       14.0       14.0         81       52.9         35       34.3       0.00       0.00
3:45pm            266        1.0        7.0         35       52.3      29.99       25.5     -0.019       14.0       14.0         81       52.9         35       34.3       0.00       0.00
3:50pm            138        2.0       10.0         35       52.0      29.99       25.2     -0.017       14.0       14.0         81       52.9         35       34.3       0.00       0.00
3:55pm            273        5.0       10.0         35       51.7      29.99       24.9     -0.016       14.0       14.0         81       52.9         35       34.3       0.00       0.00
4:00pm            152        2.0       10.0         38       51.7      29.99       26.9     -0.018       14.0       14.0         81       52.9         35       34.3       0.00       0.00
4:05pm            175        0.0        3.0         36       52.2      29.99       26.1     -0.016       14.0       14.0         81       52.9         35       34.3       0.00       0.00
4:10pm            328        2.0        7.0         37       52.2      29.99       26.7     -0.015       14.0       14.0         81       52.9         35       34.3       0.00       0.00
4:15pm            265        0.0        7.0         38       51.7      29.98       26.9     -0.019       14.0       14.0         81       52.9         35       34.3       0.00       0.00
4:20pm            275        0.0        7.0         37       51.9      29.98       26.5     -0.017       14.0       14.0         81       52.9         35       34.3       0.00       0.00
4:25pm            271        5.0        7.0         37       52.0      29.98       26.6     -0.016       14.0       14.0         81       52.9         35       34.3       0.00       0.00
4:30pm            240        0.0        7.0         38       52.0      29.98       27.2     -0.017       14.0       14.0         81       52.9         35       34.3       0.00       0.00
4:35pm            238        1.0        7.0         37       51.9      29.98       26.5     -0.015       14.0       14.0         81       52.9         35       34.3       0.00       0.00
4:40pm            238        0.0        7.0         37       51.7      29.98       26.3     -0.014       14.0       14.0         81       52.9         35       34.3       0.00       0.00
4:45pm            240        1.0        7.0         37       51.6      29.98       26.2     -0.016       14.0       14.0         81       52.9         35       34.3       0.00       0.00
4:50pm            240        0.0        7.0         37       51.3      29.98       25.9     -0.015       14.0       14.0         81       52.9         35       34.3       0.00       0.00
4:55pm            273        0.0        7.0         38       50.8      29.98       26.1     -0.013       14.0       14.0         81       52.9         35       34.3       0.00       0.00
5:00pm            268        0.0        7.0         38       50.5      29.98       25.9     -0.008       14.0       14.0         81       52.9         35       34.3       0.00       0.00
5:05pm            265        0.0        3.0         39       50.5      29.98       26.5     -0.008       14.0       14.0         81       52.9         35       34.3       0.00       0.00
5:10pm            266        0.0        3.0         42       50.4      29.98       28.2     -0.007       14.0       14.0         81       52.9         35       34.3       0.00       0.00
5:15pm            265        0.0        3.0         40       50.4      29.97       27.0     -0.019       14.0       14.0         81       52.9         35       34.3       0.00       0.00
5:20pm            265        0.0        3.0         40       50.4      29.97       27.0     -0.018       14.0       14.0         81       52.9         35       34.3       0.00       0.00
5:25pm            265        0.0        3.0         39       50.2      29.97       26.2     -0.016       14.0       14.0         81       52.9         35       34.3       0.00       0.00
5:30pm            265        0.0        3.0         39       49.9      29.97       25.9     -0.017       14.0       14.0         81       52.9         35       34.3       0.00       0.00
5:35pm            265        1.0        3.0         40       49.9      29.97       26.6     -0.016       14.0       14.0         81       52.9         35       34.3       0.00       0.00
5:40pm            265        0.0        3.0         41       49.8      29.97       27.1     -0.014       14.0       14.0         81       52.9         35       34.3       0.00       0.00
5:45pm            265        0.0        3.0         40       49.6      29.97       26.3     -0.014       14.0       14.0         81       52.9         35       34.3       0.00       0.00
5:50pm            265        0.0        3.0         41       49.5      29.97       26.8     -0.013       14.0       14.0         81       52.9         35       34.3       0.00       0.00
5:55pm            265        0.0        3.0         41       49.4      29.97       26.7     -0.012       14.0       14.0         81       52.9         35       34.3       0.00       0.00
6:00pm            265        0.0        3.0         41       49.2      29.96       26.5     -0.013       14.0       14.0         81       52.9         35       34.3       0.00       0.00
6:05pm            265        2.0        2.0         41       49.1      29.96       26.4     -0.012       14.0       14.0         81       52.9         35       34.3       0.00       0.00
6:10pm            265        0.0        2.0         41       48.9      29.96       26.3     -0.011       14.0       14.0         81       52.9         35       34.3       0.00       0.00
6:15pm            265        0.0        2.0         43       48.8      29.96       27.3     -0.011       14.0       14.0         81       52.9         35       34.3       0.00       0.00
6:20pm            265        0.0        2.0         43       48.5      29.96       27.0     -0.010       14.0       14.0         81       52.9         35       34.3       0.00       0.00
6:25pm            265        0.0        2.0         44       48.3      29.96       27.4     -0.009       14.0       14.0         81       52.9         35       34.3       0.00       0.00
6:30pm            265        0.0        2.0         44       48.2      29.96       27.3     -0.007       14.0       14.0         81       52.9         35       34.3       0.00       0.00
6:35pm            265        0.0        2.0         44       48.0      29.96       27.1     -0.006       14.0       14.0         81       52.9         35       34.3       0.00       0.00
6:40pm            265        0.0        2.0         45       47.9      29.96       27.6     -0.006       14.0       14.0         81       52.9         35       34.3       0.00       0.00
6:45pm            265        0.0        2.0         47       47.7      29.97       28.5     -0.002       14.0       14.0         81       52.9         35       34.3       0.00       0.00
6:50pm            265        0.0        2.0         47       47.6      29.97       28.4     -0.002       14.0       14.0         81       52.9         35       34.3       0.00       0.00
6:55pm            265        0.0        2.0         47       47.4      29.97       28.2     -0.002       14.0       14.0         81       52.9         35       34.3       0.00       0.00
7:00pm            265        1.0        2.0         46       47.3      29.98       27.6      0.009       14.0       14.0         81       52.9         35       34.3       0.00       0.00
7:05pm            265        0.0        1.0         47       47.1      29.98       27.9      0.008       14.0       14.0         81       52.9         35       34.3       0.00       0.00
7:10pm            265        0.0        3.0         47       47.0      29.98       27.8      0.008       14.0       14.0         81       52.9         35       34.3       0.00       0.00
7:15pm            265        0.0        3.0         47       47.0      29.98       27.8      0.013       14.0       14.0         81       52.9         35       34.3       0.00       0.00
7:20pm            266        3.0        3.0         47       47.0      29.98       27.8      0.012       14.0       14.0         81       52.9         35       34.3       0.00       0.00
7:25pm            265        0.0        3.0         47       47.0      29.98       27.8      0.011       14.0       14.0         81       52.9         35       34.3       0.00       0.00
7:30pm            265        0.0        3.0         47       46.8      29.99       27.6      0.019       14.0       14.0         81       52.9         35       34.3       0.00       0.00
7:35pm            266        0.0        3.0         47       46.8      29.99       27.6      0.017       14.0       14.0         81       52.9         35       34.3       0.00       0.00
7:40pm            266        0.0        3.0         47       46.8      29.99       27.6      0.016       14.0       14.0         81       52.9         35       34.3       0.00       0.00
7:45pm            268        0.0        3.0         47       46.8      30.00       27.6      0.019       14.0       14.0         81       52.9         35       34.3       0.00       0.00
7:50pm            268        1.0        3.0         47       46.7      30.00       27.6      0.017       14.0       14.0         81       52.9         35       34.3       0.00       0.00
7:55pm            266        0.0        3.0         48       46.7      30.00       28.1      0.016       14.0       14.0         81       52.9         35       34.3       0.00       0.00
8:00pm            265        0.0        3.0         48       46.7      30.00       28.1      0.016       14.0       14.0         81       52.9         35       34.3       0.00       0.00
8:05pm            266        0.0        1.0         48       46.7      30.00       28.1      0.014       14.0       14.0         81       52.9         35       34.3       0.00       0.00
8:10pm            268        0.0        3.0         47       46.5      30.00       27.4      0.013       14.0       14.0         81       52.9         35       34.3       0.00       0.00
8:15pm            268        2.0        3.0         47       46.5      30.00       27.4      0.010       14.0       14.0         81       52.9         35       34.3       0.00       0.00
8:20pm            266        1.0        3.0         47       46.5      30.00       27.4      0.009       14.0       14.0         81       52.9         35       34.3       0.00       0.00
8:25pm            266        0.0        3.0         47       46.5      30.00       27.4      0.009       14.0       14.0         81       52.9         35       34.3       0.00       0.00
8:30pm            266        0.0        3.0         47       46.4      30.00       27.3      0.011       14.0       14.0         81       52.9         35       34.3       0.00       0.00
8:35pm            266        2.0        3.0         47       46.4      30.00       27.3      0.010       14.0       14.0         81       52.9         35       34.3       0.00       0.00
8:40pm            264        0.0        3.0         47       46.5      30.00       27.4      0.009       14.0       14.0         81       52.9         35       34.3       0.00       0.00
8:45pm            264        0.0        3.0         47       46.4      30.00       27.3      0.005       14.0       14.0         81       52.9         35       34.3       0.00       0.00
8:50pm            264        0.0        3.0         48       46.4      30.00       27.8      0.005       14.0       14.0         81       52.9         35       34.3       0.00       0.00
8:55pm            264        0.0        3.0         47       46.2      30.00       27.1      0.005       14.0       14.0         81       52.9         35       34.3       0.00       0.00
9:00pm            264        0.0        3.0         47       46.2      29.99       27.1      0.002       14.0       14.0         81       52.9         35       34.3       0.00       0.00
9:05pm            278        5.0        7.0         46       46.2      29.99       26.6      0.002       14.0       14.0         81       52.9         35       34.3       0.00       0.00
9:10pm            276        2.0        7.0         47       46.2      29.99       27.1      0.002       14.0       14.0         81       52.9         35       34.3       0.00       0.00
9:15pm            273        2.0        7.0         48       46.2      30.00       27.6      0.008       14.0       14.0         81       52.9         35       34.3       0.00       0.00
9:20pm            276        3.0        7.0         48       46.2      30.00       27.6      0.007       14.0       14.0         81       52.9         35       34.3       0.00       0.00
9:25pm            269        2.0        9.0         49       46.1      30.00       28.0      0.007       14.0       14.0         81       52.9         35       34.3       0.00       0.00
9:30pm            264        0.0       10.0         49       46.0      30.00       27.9      0.010       14.0       14.0         81       52.9         35       34.3       0.00       0.00
9:35pm            265        0.0       10.0         50       46.0      30.00       28.4      0.009       14.0       14.0         81       52.9         35       34.3       0.00       0.00
9:40pm            272       14.0       14.0         54       45.4      30.00       29.7      0.008       14.0       14.0         81       52.9         35       34.3       0.00       0.00
9:45pm            273        1.0       14.0         57       44.5      30.03       30.2      0.030       14.0       14.0         81       52.9         35       34.3       0.00       0.00
9:50pm            241        1.0       14.0         59       43.9      30.03       30.5      0.028       14.0       14.0         81       52.9         35       34.3       0.00       0.00
9:55pm            269        0.0       14.0         60       43.5      30.03       30.6      0.026       14.0       14.0         81       52.9         35       34.3       0.00       0.00
10:00pm           265       10.0       14.0         62       43.2      30.03       31.1      0.027       14.0       14.0         81       52.9         35       34.3       0.00       0.00
10:05pm           271        3.0       10.0         63       43.1      30.03       31.4      0.024       14.0       14.0         81       52.9         35       34.3       0.00       0.00
10:10pm           285        3.0       16.0         65       42.8      30.03       31.9      0.023       16.0       16.0         81       52.9         35       34.3       0.00       0.00
10:15pm           282        2.0       16.0         65       42.6      30.04       31.7      0.032       16.0       16.0         81       52.9         35       34.3       0.00       0.00
10:20pm           290        2.0       16.0         68       42.1      30.04       32.3      0.029       16.0       16.0         81       52.9         35       34.3       0.00       0.00
10:25pm           278        3.0       16.0         69       41.8      30.04       32.4      0.027       16.0       16.0         81       52.9         35       34.3       0.00       0.00
10:30pm           269        1.0       16.0         70       41.5      30.05       32.5      0.029       16.0       16.0         81       52.9         35       34.3       0.00       0.00
10:35pm           245        3.0       16.0         71       41.3      30.05       32.6      0.026       16.0       16.0         81       52.9         35       34.3       0.00       0.00
10:40pm           289        2.0       16.0         72       41.1      30.05       32.8      0.024       16.0       16.0         81       52.9         35       34.3       0.00       0.00
10:45pm           299        2.0       16.0         73       40.9      30.05       32.9      0.023       16.0       16.0         81       52.9         35       34.3       0.00       0.00
10:50pm           309        0.0       16.0         73       40.8      30.05       32.8      0.021       16.0       16.0         81       52.9         35       34.3       0.00       0.00
10:55pm           265       10.0       16.0         74       40.6      30.05       33.0      0.020       16.0       16.0         81       52.9         35       34.3       0.00       0.00
11:00pm           249        3.0       16.0         74       40.5      30.06       32.9      0.028       16.0       16.0         81       52.9         35       34.3       0.00       0.00
11:05pm           278        0.0       10.0         75       40.2      30.06       32.9      0.026       16.0       16.0         81       52.9         35       34.3       0.00       0.00
11:10pm           269        6.0       10.0         76       39.9      30.06       33.0      0.024       16.0       16.0         81       52.9         35       34.3       0.00       0.00
11:15pm           273        0.0       12.0         76       39.6      30.05       32.7      0.018       16.0       16.0         81       52.9         35       34.3       0.00       0.00
11:20pm           272        0.0       12.0         76       39.5      30.05       32.6      0.016       16.0       16.0         81       52.9         35       34.3       0.00       0.00
11:25pm           313        0.0       12.0         77       39.3      30.05       32.7      0.015       16.0       16.0         81       52.9         35       34.3       0.00       0.00
11:30pm           279        1.0       12.0         78       39.3      30.05       33.0      0.014       16.0       16.0         81       52.9         35       34.3       0.00       0.00
11:35pm           279        1.0       12.0         78       39.2      30.05       32.9      0.013       16.0       16.0         81       52.9         35       34.3       0.00       0.00
11:40pm           280        2.0       12.0         79       39.2      30.05       33.2      0.012       16.0       16.0         81       52.9         35       34.3       0.00       0.00
11:45pm           279        0.0       12.0         79       39.1      30.05       33.1      0.007       16.0       16.0         81       52.9         35       34.3       0.00       0.00
11:50pm           279        1.0       12.0         79       39.1      30.05       33.1      0.006       16.0       16.0         81       52.9         35       34.3       0.00       0.00
11:55pm           317        1.0       12.0         80       38.9      30.05       33.3      0.006       16.0       16.0         81       52.9         35       34.3       0.00       0.00


Updated Automatically by Ambient Software's Virtual Weather Station  V14.01
All rights reserved. Unauthorized duplication or distribution is prohibited
Never base important decisions on this or any weather information obtained from the Internet